[Iaude] MPEC F04: 2024 ES4 [a=1.67,e=0.38,i=2.7,H=25.8]

mpec at cfa.harvard.edu mpec at cfa.harvard.edu
Sat Mar 16 08:38:23 EDT 2024


M.P.E.C. 2024-F04                                Issued 2024 March 16, 12:36 UT

     The Minor Planet Electronic Circulars contain information on unusual
         minor planets, routine data on comets and natural satellites,
         and occasional editorial announcements.  They are published
    on behalf of Division F of the International Astronomical Union by the
          Minor Planet Center, Smithsonian Astrophysical Observatory,
                          Cambridge, MA 02138, U.S.A.
			  
             Prepared using the Tamkin Foundation Computer Network

                              MPC at CFA.HARVARD.EDU
            URL https://www.minorplanetcenter.net/    ISSN 1523-6714

                                    2024 ES4                                    


Observations:
     K24E04S  C2024 02 12.40984609 37 30.448-02 48 46.69         22.63GVEF004F52
     K24E04S  C2024 02 12.42228009 37 30.654-02 48 59.24         23.03GVEF004F52
     K24E04S  C2024 02 12.43472209 37 30.841-02 49 12.46         22.85GVEF004F52
     K24E04S  C2024 03 02.34560810 03 05.313-09 50 50.92         21.73GVEF004F52
     K24E04S  C2024 03 02.36912010 03 08.190-09 51 33.44         21.67GVEF004F52
     K24E04S  C2024 03 02.38085610 03 09.619-09 51 54.52         22.66GVEF004F52
     K24E04S* C2024 03 14.41417110 57 23.256-17 34 41.31         21.22wXEF004F51
     K24E04S  C2024 03 14.42513810 57 27.410-17 35 13.19         20.74wXEF004F51
     K24E04S hC2024 03 14.89118311 00 56.87 -17 58 40.1          21.0 GVEF004L01
     K24E04S hC2024 03 14.89370811 00 57.91 -17 58 48.2          20.7 GVEF004L01
     K24E04S hC2024 03 14.89879911 00 59.97 -17 59 02.6          20.6 GVEF004L01
     K24E04S hC2024 03 14.90178711 01 01.19 -17 59 11.9          20.7 GVEF004L01
     K24E04S KB2024 03 14.98004411 01 35.12 -18 03 03.6          19.6 GXEF004958
     K24E04S KB2024 03 14.98532111 01 37.20 -18 03 20.2          20.0 GXEF004958
     K24E04S KB2024 03 14.99060211 01 39.36 -18 03 35.0                XEF004958
     K24E04S |C2024 03 15.06977011 02 21.430-18 04 51.40         20.2 GVEF004807
     K24E04S |C2024 03 15.07425011 02 23.290-18 05 05.20         20.4 GVEF004807
     K24E04S |C2024 03 15.07858011 02 25.130-18 05 18.40         20.4 GVEF004807
     K24E04S |C2024 03 16.15788011 11 01.330-18 59 53.80         20.3 GVEF004807
     K24E04S |C2024 03 16.16008011 11 02.300-19 00 00.60         20.2 GVEF004807
     K24E04S KC2024 03 16.20855911 11 26.69 -19 05 01.5          21.0 GVEF004H21
     K24E04S KC2024 03 16.21142511 11 28.02 -19 05 10.3          20.7 GVEF004H21
     K24E04S KC2024 03 16.21429211 11 29.32 -19 05 19.5          21.0 GVEF004H21
     K24E04S KC2024 03 16.21715811 11 30.62 -19 05 28.4          21.3 GVEF004H21

Observer details:
807 Cerro Tololo Observatory, La Serena.  Observers T. Linder, R. Holmes.
    0.61-m f/6.8 Ritchey-Chretien + CCD.
958 Observatoire de Dax.  Observer P. Dupouy.  0.50-m f/4.5 Reflector + CMO.
F51 Pan-STARRS 1, Haleakala.  Observers J. Herman, T. Lowe, P. Minguez, A.
    Schultz, I. Smith.  Measurers K. Chambers, T. de Boer, J. Fairlamb, H.
    Gao, M. Huber, C.-C. Lin, E. Magnier, Y. Ramanjooloo, R. Wainscoat, R.
    Weryk.  1.8-m Ritchey-Chretien + CCD.
F52 Pan-STARRS 2, Haleakala.  Observers J. Herman, T. Lowe, P. Minguez, A.
    Schultz, I. Smith.  Measurers K. Chambers, T. de Boer, J. Fairlamb, H.
    Gao, M. Huber, C.-C. Lin, E. Magnier, Y. Ramanjooloo, R. Wainscoat, R.
    Weryk.  1.8-m Ritchey-Chretien + CCD.
H21 Astronomical Research Observatory, Westfield.  Observer R. Holmes.
    Measurers T. Linder, R. Holmes, L. Horn.  0.81-m f/4.0 astrograph + CCD.
L01 Visnjan Observatory, Tican.  Observers K. Korlevic, I. Lyon.  Measurer K.
    Korlevic.  1.0-m f/2.9 reflector + CCD.

Orbital elements:
2024 ES4                                                 Earth MOID = 0.0354 AU
Epoch 2024 Mar. 31.0 TT = JDT 2460400.5                 Veres                   
M 358.94592              (2000.0)            P               Q                  
n   0.45838180     Peri.  351.63098     -0.96864057     +0.24777349             
a   1.6659085      Node   202.74085     -0.22509651     -0.90668117             
e   0.3781973      Incl.    2.74904     -0.10519982     -0.34137597             
P   2.15           H   25.82          G   0.15           U   6                  
Residuals in seconds of arc
240212 F52  0.1+  0.4-    240314 L01  0.2-  0.2-    240315 807  0.4-  0.3-
240212 F52  0.0   0.2+    240314 L01  0.2-  0.6-    240315 807  0.1+  0.0
240212 F52  0.4-  0.2+    240314 L01  0.7-  0.3+    240316 807  0.0   0.2+
240302 F52  0.1+  0.0     240314 L01  0.8-  0.1+    240316 807  0.3-  0.3+
240302 F52  0.1+  0.0     240314 958  1.4-  0.0     240316 H21  0.1+  0.2+
240302 F52  0.1+  0.0     240314 958  2.7-  0.9-    240316 H21  0.4+  0.3+
240314 F51  0.2-  0.0     240314 958  2.9-  0.0     240316 H21  0.2+  0.0
240314 F51  0.1-  0.0     240315 807  0.2-  0.5-    240316 H21  0.1+  0.0

Ephemeris:
2024 ES4                 a,e,i = 1.67, 0.38, 3                   q = 1.0359
Date    TT    R. A. (2000) Decl.     Delta      r    Elong.  Phase     V
2024 02 15    09 39 14.7 -03 35 04   0.1600  1.1416   163.1    14.5    22.9
...
2024 03 01    09 59 44.1 -09 11 15   0.1028  1.0877   159.3    18.8    22.0
...
2024 03 09    10 26 07.8 -13 36 24   0.07828 1.0658   157.8    20.6    21.4
...
2024 03 15    11 01 43.8 -18 01 58   0.06297 1.0530   157.7    21.0    21.0
2024 03 16    11 09 40.6 -18 52 15   0.06075 1.0512   157.7    21.0    20.9
2024 03 17    11 18 19.9 -19 43 56   0.05864 1.0495   157.7    21.1    20.8
...
2024 03 23    12 27 27.9 -24 55 50   0.04885 1.0414   155.7    23.2    20.5
...
2024 03 31    14 36 32.6 -27 44 12   0.04595 1.0361   143.3    35.2    20.7
...
2024 04 15    17 16 41.0 -19 02 26   0.06820 1.0442   125.3    51.6    22.0

M. P. C. Staff               (C) Copyright 2024 MPC           M.P.E.C. 2024-F04





More information about the Iaude mailing list